User: anonymous   Login
Location: Kawakawa
(35.3830°S, 174.0670°E)
Time: 07:19:53
(UTC+13:00)
Language:

Cosmos 1707 Rocket - Orbit

View from above orbital plane
View from above orbital plane
View from above satellite
View from above satellite

Ground track
Ground track

The orbit data is extracted from the following two-line orbital elements,

1 16327U 85113B   19081.86483024  .00000071  00000-0  57068-5 0  9990
2 16327  82.5361 210.6179 0019716  29.8928  86.8643 14.83429414797305
Epoch (UTC): 22 March 2019 20:45:21
Eccentricity: 0.0019716
inclination: 82.5361°
perigee height: 605 km
apogee height: 632 km
right ascension of ascending node: 210.6179°
argument of perigee: 29.8928°
revolutions per day: 14.83429414
mean anomaly at epoch: 86.8643°
orbit number at epoch: 79730

The dashed part of the orbit path shows where the satellite is in the earth's shadow,  

DLR